Regional Weather Roundup
Issued by NWS

Home | Current Version | Previous Version | Graphics & Text | Print | Product List | Glossary On
Versions: 1 2 3 4 5 6 7 8 9 10 11 12 13 14 15 16 17 18 19 20 21 22 23 24 25 26 27 28 29 30 31 32 33 34 35 36 37 38 39 40 41 42 43 44 45 46 47 48 49 50
000
ASUS43 KMKX 241211
RWRWI

WISCONSIN REGIONAL WEATHER ROUNDUP
NATIONAL WEATHER SERVICE MILWAUKEE/SULLIVAN WI
700 AM CDT SUN SEP 24 2017

NOTE: "FAIR" INDICATES FEW OR NO CLOUDS BELOW 12,000 FEET WITH NO
SIGNIFICANT WEATHER AND/OR OBSTRUCTIONS TO VISIBILITY.

WIZ001-002-006>008-014>016-023>028-241300-
NORTHWEST WISCONSIN

CITY           SKY/WX    TMP DP  RH WIND       PRES   REMARKS
SUPERIOR ARPT  FOG       64  64 100 E5        29.96R VSB 1/2
6HR MIN TEMP:  64; 6HR MAX TEMP:  66;

ASHLAND        FOG       59  58  96 CALM      29.97S VSB 3/4
6HR MIN TEMP:  59; 6HR MAX TEMP:  66;

HAYWARD        CLEAR     67  62  84 S5        29.99S
6HR MIN TEMP:  63; 6HR MAX TEMP:  75;

SIREN          CLEAR     68  63  84 S8        29.96S
6HR MIN TEMP:  64; 6HR MAX TEMP:  69;

CUMBERLAND     CLEAR     64  61  88 SE3       29.99S
RICE LAKE      CLEAR     67  63  86 CALM      30.01R
6HR MIN TEMP:  67; 6HR MAX TEMP:  70;

CHETEK         CLEAR     66  64  96 E8        30.00S
6HR MIN TEMP:  66; 6HR MAX TEMP:  71;

LADYSMITH      CLEAR     69  62  80 SE3       30.04R
6HR MIN TEMP:  69; 6HR MAX TEMP:  74;

EAU CLAIRE     CLEAR     64  62  93 CALM      29.99S
6HR MIN TEMP:  64; 6HR MAX TEMP:  74;

MENOMONIE      CLEAR     66  64  91 E3        30.00R
6HR MIN TEMP:  65; 6HR MAX TEMP:  70;

NEW RICHMOND   CLEAR     68  60  75 S6        29.97S
6HR MIN TEMP:  68; 6HR MAX TEMP:  73;

OSCEOLA        CLEAR     69  62  78 SE3       29.99S
6HR MIN TEMP:  68; 6HR MAX TEMP:  72;

$$

WIZ003>005-009-010-017-018-241300-
NORTH CENTRAL WISCONSIN

CITY           SKY/WX    TMP DP  RH WIND       PRES   REMARKS
MANITOWISH WTR CLEAR     64  64 100 SE3       30.05
ARBOR VITAE    CLEAR     69  64  82 S5        30.06S
6HR MIN TEMP:  69; 6HR MAX TEMP:  72;

WOODRUFF       CLEAR     69  64  82 S5        30.06S
6HR MIN TEMP:  69; 6HR MAX TEMP:  72;

RHINELANDER    CLEAR     61  61 100 CALM      30.08S FOG
6HR MIN TEMP:  61; 6HR MAX TEMP:  71;

EAGLE RIVER    CLEAR     62  62  99 CALM      30.07S
6HR MIN TEMP:  61; 6HR MAX TEMP:  69;

LAND O LAKES   FOG       60  60 100 CALM      30.09S VSB 3/4
6HR MIN TEMP:  60; 6HR MAX TEMP:  69;

PHILLIPS       CLEAR     67  64  87 S3        30.04S
6HR MIN TEMP:  67; 6HR MAX TEMP:  72;

TOMAHAWK       CLEAR     60  59  96 CALM      30.07S FOG
6HR MIN TEMP:  60; 6HR MAX TEMP:  64;

MEDFORD        CLEAR     62  60  91 S6        30.06R
6HR MIN TEMP:  62; 6HR MAX TEMP:  68;

MERRILL        CLEAR     58  58 100 CALM      30.07S FOG
6HR MIN TEMP:  58; 6HR MAX TEMP:  64;

$$

WIZ029-030-035-036-043>047-241300-
CENTRAL WISCONSIN

CITY           SKY/WX    TMP DP  RH WIND       PRES   REMARKS
WAUSAU         CLEAR     63  62  97 E5        30.05S
6HR MIN TEMP:  62; 6HR MAX TEMP:  70;

MOSINEE        CLEAR     64  63  94 SE5       30.07S
MARSHFIELD     CLEAR     65  60  84 S6        30.05S
6HR MIN TEMP:  64; 6HR MAX TEMP:  68;

STEVENS POINT  CLEAR     61  61 100 CALM      30.07S FOG
6HR MIN TEMP:  61; 6HR MAX TEMP:  66;

WAUPACA        CLEAR     64  64  98 CALM      30.08R FOG
6HR MIN TEMP:  64; 6HR MAX TEMP:  69;

WAUTOMA        CLEAR     61  60  97 CALM      30.07S
6HR MIN TEMP:  61; 6HR MAX TEMP:  65;

WISC RAPIDS    CLEAR     68  64  87 S5        30.06F
6HR MIN TEMP:  64; 6HR MAX TEMP:  72;

CAMP DOUGLAS   CLEAR     60  60 100 SE5       30.04S
6HR MIN TEMP:  60; 6HR MAX TEMP:  67;

$$

WIZ011>013-019>022-031-037>040-048>050-241300-
NORTHEAST WISCONSIN

CITY           SKY/WX    TMP DP  RH WIND       PRES   REMARKS
ANTIGO         CLEAR     66  64  94 S5        30.09S
6HR MIN TEMP:  63; 6HR MAX TEMP:  67;

SHAWANO        CLEAR     68  65  90 CALM      30.07R
6HR MIN TEMP:  68; 6HR MAX TEMP:  73;

OCONTO         MOCLDY    61  61  99 CALM      30.07R VSB 1
6HR MIN TEMP:  60; 6HR MAX TEMP:  68;

STURGEON BAY   CLEAR     70  65  84 S6        30.09R
6HR MIN TEMP:  70; 6HR MAX TEMP:  74;

GREEN BAY      CLEAR     64  64 100 CALM      30.07R
6HR MIN TEMP:  64; 6HR MAX TEMP:  72;

MANITOWOC      CLEAR     64  64 100 SE3       30.10R FOG
6HR MIN TEMP:  63; 6HR MAX TEMP:  72;

APPLETON       CLEAR     68  61  77 CALM      30.06S
CLINTONVILLE   FOG       63  61  94 CALM      30.07R VSB 3/4
OSHKOSH        CLEAR     67  64  90 S6        30.07R
6HR MIN TEMP:  65; 6HR MAX TEMP:  70;

$$

WIZ032>034-041-042-053>061-241300-
SOUTHWEST WISCONSIN

CITY           SKY/WX    TMP DP  RH WIND       PRES   REMARKS
LA CROSSE      CLEAR     69  65  86 SE7       30.01S
6HR MIN TEMP:  68; 6HR MAX TEMP:  73;

SPARTA         CLEAR     57  57  99 CALM      30.04S
6HR MIN TEMP:  57; 6HR MAX TEMP:  66;

VIROQUA        CLEAR     66  64  93 SE6       30.05S
6HR MIN TEMP:  66; 6HR MAX TEMP:  73;

BOSCOBEL       FOG       60  59  96 CALM      30.04S VSB 1/2
6HR MIN TEMP:  60; 6HR MAX TEMP:  67;

PRAIRIE DU CHI CLEAR     64  62  91 CALM      30.03R
6HR MIN TEMP:  64; 6HR MAX TEMP:  71;

PLATTEVILLE    CLEAR     66  64  92 SE5       30.06S
6HR MIN TEMP:  66; 6HR MAX TEMP:  72;

$$

WIZ056-057-062-063-064-067-068-241300-
SOUTH CENTRAL WISCONSIN

CITY           SKY/WX    TMP DP  RH WIND       PRES   REMARKS
REEDSBURG      CLEAR     61  61 100 CALM      30.06R
6HR MIN TEMP:  61; 6HR MAX TEMP:  66;

BARABOO/DELLS  CLEAR     65  61  86 S3        30.06S
6HR MIN TEMP:  64; 6HR MAX TEMP:  72;

LONE ROCK      CLEAR     61  61 100 E3        30.05S FOG
6HR MIN TEMP:  59; 6HR MAX TEMP:  66;

MINERAL POINT  CLEAR     68  64  88 SE6       30.07S
MADISON        CLEAR     65  64  97 CALM      30.07R
6HR MIN TEMP:  64; 6HR MAX TEMP:  75;

MIDDLETON      CLEAR     63  63 100 CALM      30.08R
6HR MIN TEMP:  63; 6HR MAX TEMP:  74;

WATERTOWN      CLEAR     64  64 100 SE3       30.08R
6HR MIN TEMP:  62; 6HR MAX TEMP:  69;

MONROE         CLEAR     68  61  77 S7        30.07S
JANESVILLE     CLEAR     66  66 100 CALM      30.07R
$$

WIZ051-052-058>065-066-070>072-241300-
SOUTHEAST WISCONSIN

CITY           SKY/WX    TMP DP  RH WIND       PRES   REMARKS
MILWAUKEE      CLEAR     68  66  93 SE3       30.08R FOG
6HR MIN TEMP:  68; 6HR MAX TEMP:  75;

WAUKESHA       CLEAR     63  61  94 CALM      30.10R
MILWAUKEE/TIMM CLEAR     63  59  88 CALM      30.09S
RACINE         CLEAR     69  69 100 CALM      30.10R FOG
6HR MIN TEMP:  68; 6HR MAX TEMP:  74;

BURLINGTON     FOG       58  58 100 CALM      30.09S VSB 1
6HR MIN TEMP:  57; 6HR MAX TEMP:  64;

KENOSHA        CLEAR     65  64  97 CALM      30.09S FOG
6HR MIN TEMP:  63; 6HR MAX TEMP:  74;

FOND DU LAC    CLEAR     65  62  90 CALM      30.08R
6HR MIN TEMP:  65; 6HR MAX TEMP:  71;

SHEBOYGAN      CLEAR     65  65 100 S3        30.09R FOG
6HR MIN TEMP:  60; 6HR MAX TEMP:  65;

WEST BEND        N/A     59  59 100 CALM      30.09S FOG
JUNEAU         CLEAR     66  64  90 CALM      30.09S
6HR MIN TEMP:  66; 6HR MAX TEMP:  70;

$$

LSZ147-162-241300-
LAKE SUPERIOR

STATION/POSITION TIME  TEMP    WIND        PRES    WAVE
                       AIR SEA DIR/SP/G            HT/PER
                 (UTC) (F)     (DEG/KT/KT) (MB)    (FT/S)
W MID LAKE BUOY  1150   58 55   10/ 10/ 12 1014.8R   1
DEVILS ISLAND    1200   62      90/  7/  8 1014.5F
PORT WING        1030   64      40/  7/  9 1014.6
SAXON HARBOR     1140   72     200/  4/  6 1014.2S
$$

LMZ867-665-643>646-241300-
LAKE MICHIGAN

STATION/POSITION TIME  TEMP    WIND        PRES    WAVE
                       AIR SEA DI



USA.gov is the U.S. government's official web portal to all federal, state and local government web resources and services.